TimeEDT,TemperatureF,Dew PointF,Humidity,Sea Level PressureIn,VisibilityMPH,Wind Direction,Wind SpeedMPH,Gust SpeedMPH,PrecipitationIn,Events,Conditions,WindDirDegrees,DateUTC
12:53 AM,68.0,66.9,96,29.98,4.0,Calm,Calm,-,N/A,,Clear,0,2013-09-04 04:53:00
1:53 AM,69.1,66.9,93,29.97,4.0,Calm,Calm,-,N/A,,Clear,0,2013-09-04 05:53:00
2:07 AM,68.0,66.2,94,30.01,2.0,Calm,Calm,-,N/A,,Clear,0,2013-09-04 06:07:00
2:17 AM,68.0,66.2,94,30.01,3.0,Calm,Calm,-,N/A,,Clear,0,2013-09-04 06:17:00
2:53 AM,68.0,66.9,96,29.97,4.0,Calm,Calm,-,N/A,,Clear,0,2013-09-04 06:53:00
3:53 AM,68.0,66.0,93,29.98,4.0,Calm,Calm,-,N/A,,Clear,0,2013-09-04 07:53:00
4:53 AM,66.9,66.0,97,29.98,4.0,Calm,Calm,-,N/A,,Clear,0,2013-09-04 08:53:00
5:53 AM,66.0,64.9,96,30.00,3.0,Calm,Calm,-,N/A,,Clear,0,2013-09-04 09:53:00
6:53 AM,64.9,64.0,97,30.01,3.0,Calm,Calm,-,N/A,,Clear,0,2013-09-04 10:53:00
7:53 AM,64.9,64.0,97,30.05,3.0,Calm,Calm,-,N/A,,Clear,0,2013-09-04 11:53:00
8:53 AM,70.0,66.0,87,30.06,9.0,North,4.6,-,N/A,,Clear,360,2013-09-04 12:53:00
9:53 AM,73.0,66.9,81,30.07,10.0,North,3.5,-,N/A,,Clear,10,2013-09-04 13:53:00
10:53 AM,77.0,68.0,74,30.08,10.0,Variable,3.5,-,N/A,,Clear,0,2013-09-04 14:53:00
11:53 AM,80.1,69.1,69,30.08,10.0,Variable,3.5,-,N/A,,Clear,0,2013-09-04 15:53:00
12:53 PM,84.0,68.0,58,30.07,10.0,Calm,Calm,-,N/A,,Clear,0,2013-09-04 16:53:00
1:53 PM,84.9,64.0,49,30.06,10.0,Calm,Calm,-,N/A,,Scattered Clouds,0,2013-09-04 17:53:00
2:53 PM,86.0,64.9,49,30.05,10.0,SE,4.6,-,N/A,,Partly Cloudy,130,2013-09-04 18:53:00
3:53 PM,86.0,62.1,44,30.03,10.0,Calm,Calm,-,N/A,,Partly Cloudy,0,2013-09-04 19:53:00
4:53 PM,86.0,64.0,48,30.03,10.0,Calm,Calm,-,N/A,,Clear,0,2013-09-04 20:53:00
5:53 PM,80.1,64.9,60,30.02,10.0,Calm,Calm,-,N/A,,Clear,0,2013-09-04 21:53:00
6:53 PM,78.1,70.0,76,30.02,10.0,Calm,Calm,-,N/A,,Clear,0,2013-09-04 22:53:00
7:53 PM,72.0,69.1,91,30.03,10.0,Calm,Calm,-,N/A,,Clear,0,2013-09-04 23:53:00
8:53 PM,68.0,66.9,96,30.06,9.0,Calm,Calm,-,N/A,,Clear,0,2013-09-05 00:53:00
9:53 PM,66.9,64.9,93,30.08,8.0,Calm,Calm,-,N/A,,Clear,0,2013-09-05 01:53:00
10:53 PM,66.0,64.9,96,30.09,7.0,Calm,Calm,-,N/A,,Clear,0,2013-09-05 02:53:00
11:53 PM,66.0,64.0,93,30.09,6.0,Calm,Calm,-,N/A,,Clear,0,2013-09-05 03:53:00